Location: Ostrava
(49.8330°N, 18.2830°E)
Time: 14:26:26
(UTC+01:00)

Iridium 39 - Visible Passes

Search period start: 22 February 2017 00:00
Search period end: 04 March 2017 00:00
Orbit: 725 x 751 km, 86.4° (Epoch: 21 February)

Date Brightness Start Highest point End Pass type
(mag) Time Alt. Az. Time Alt. Az. Time Alt. Az.
22 Feb 7.1 05:14:15 10° N 05:19:09 46° E 05:24:02 10° SSE visible
22 Feb 5.9 18:09:14 10° S 18:14:11 74° E 18:19:13 10° N visible
22 Feb 8.8 19:51:28 10° WSW 19:54:43 17° WNW 19:57:58 10° NNW visible
23 Feb 8.4 04:29:40 10° NNE 04:33:40 23° ENE 04:37:40 10° SE visible
23 Feb 7.7 19:04:35 10° SW 19:09:07 34° WNW 19:13:43 10° NNW visible
24 Feb 9.3 03:46:30 10° NE 03:47:55 11° ENE 03:49:20 10° E visible
24 Feb 6.3 05:23:45 10° N 05:28:50 70° E 05:33:54 10° SSE visible
24 Feb 6.2 18:18:49 10° S 18:23:47 75° W 18:28:50 10° N visible
24 Feb 9.2 20:02:59 10° W 20:04:40 12° WNW 20:06:21 10° NW visible
25 Feb 7.8 04:38:54 10° NNE 04:43:30 33° ENE 04:48:04 10° SE visible
25 Feb 8.4 19:14:56 10° SW 19:18:55 24° WNW 19:22:59 10° NNW visible
26 Feb 8.9 03:54:42 10° NNE 03:57:53 16° ENE 04:01:04 10° ESE visible
26 Feb 5.9 05:33:21 10° N 05:38:27 79° W 05:43:32 10° S visible
26 Feb 7.0 18:28:38 10° SSW 18:33:28 49° W 18:38:22 10° N visible
27 Feb 7.0 04:48:18 10° N 04:53:14 49° E 04:58:10 10° SSE visible
27 Feb 9.0 19:25:40 10° WSW 19:28:48 16° WNW 19:31:59 10° NNW visible
28 Feb 8.3 04:03:41 10° NNE 04:07:47 24° ENE 04:11:51 10° SE visible
28 Feb 6.1 05:43:03 10° NNW 05:48:00 52° W 05:52:56 10° SSW visible
28 Feb 7.8 18:38:41 10° SW 18:43:12 33° WNW 18:47:46 10° NNW visible
01 Mar 9.2 03:20:18 10° NE 03:22:02 12° ENE 03:23:47 10° E visible
01 Mar 6.2 04:57:48 10° N 05:02:56 73° E 05:08:00 10° S visible
01 Mar 6.3 17:52:52 10° S 17:57:51 72° W 18:02:55 10° N visible
01 Mar 9.3 19:37:19 10° W 19:38:46 11° WNW 19:40:14 10° NW visible
02 Mar 7.7 04:12:56 10° NNE 04:17:35 34° ENE 04:22:12 10° SE visible
02 Mar 6.5 05:52:53 10° NNW 05:57:29 35° W 06:02:04 10° SSW visible
02 Mar 8.6 18:49:03 10° SW 18:53:01 23° WNW 18:57:01 10° NNW visible
03 Mar 8.8 03:28:41 10° NNE 03:32:00 17° ENE 03:35:18 10° ESE visible
03 Mar 5.9 05:07:25 10° N 05:12:32 76° W 05:17:35 10° S visible
03 Mar 7.2 18:02:42 10° SSW 18:07:31 47° W 18:12:26 10° N visible
